Flag for Netherlands Weather past 2 weeks in Haarlem, Netherlands

Now
54 °F

Clear.


Feels Like: 50 °F
Forecast: 46 / 53 °F
Wind: 12 mph from Southwest

Location: Amsterdam Schiphol Airport

Current Time: Apr 25, 2015 at 10:32:06 PM

Latest Report: Apr 25, 2015 at 9:55 PM


Visibility: 10 mi

Pressure: 29.71 "Hg

Humidity: 72%

Dew point: 45 °F

Location of HaarlemLocation

Historic Weather in Haarlem — Graph

°F

Haarlem temperature yesterday

Maximum temperature yesterday: 64 °F (at 2:55 PM)
Minimum temperature yesterday: 39 °F (at 5:55 AM)
Average temperature yesterday: 53 °F

Past Weeks' High & Low Weather Summary

 TemperatureHumidityPressure
High70 °F (Apr 15, 3:25 PM)100% (Apr 12, 4:55 AM)30.51 "Hg (Apr 12, 4:55 AM)
Low36 °F (Apr 19, 4:55 AM)34% (Apr 24, 4:55 PM)29.68 "Hg (Apr 25, 5:25 PM)
Average50 °F73%30.18 "Hg
* Reported Apr 10 9:25 PM — Apr 25 9:25 PM, Haarlem, Weather by CustomWeather, © 2015

Note: Actual official high and low records may vary slightly from our data, if they occured in-between our weather recording intervals... More about our weather records

Advertising

Haarlem weather history for previous 24 hours

 ConditionsComfort  
Time TempWeatherWind HumidityBarometerVisibility
9:25 PM
Sat, Apr 25
55 °FSunny.12 mph67%29.71 "Hg10 mi
8:55 PM55 °FSunny.14 mph72%29.71 "Hg10 mi
8:25 PM57 °FPassing clouds.14 mph67%29.71 "HgN/A
7:55 PM57 °FPassing clouds.15 mph72%29.68 "HgN/A
7:25 PM59 °FPassing clouds.13 mph68%29.68 "HgN/A
6:55 PM59 °FPassing clouds.14 mph72%29.68 "HgN/A
6:25 PM57 °FPassing clouds.18 mph77%29.68 "HgN/A
5:55 PM59 °FScattered clouds.21 mph72%29.68 "HgN/A
5:25 PM59 °FPartly sunny.20 mph72%29.68 "HgN/A
4:55 PM55 °FPartly sunny.20 mph82%29.71 "HgN/A
4:25 PM55 °FScattered showers. Mostly cloudy.20 mph82%29.71 "HgN/A
3:55 PM55 °FSprinkles. Broken clouds.20 mph88%29.71 "HgN/A
3:25 PM55 °FPartly sunny.20 mph82%29.71 "HgN/A
2:55 PM57 °FScattered clouds.18 mph77%29.71 "HgN/A
2:25 PM57 °FScattered clouds.17 mph77%29.71 "HgN/A
1:55 PM55 °FBroken clouds.15 mph82%29.71 "HgN/A
1:25 PM55 °FSleet. Broken clouds.12 mph88%29.71 "HgN/A
12:55 PM55 °FDrizzle. Broken clouds.10 mph88%29.71 "Hg4 mi
12:25 PM55 °FDrizzle. Partly sunny.13 mph88%29.71 "Hg5 mi
11:55 AM55 °FDrizzle. Broken clouds.13 mph88%29.71 "Hg5 mi
11:25 AM55 °FScattered clouds.14 mph82%29.71 "Hg6 mi
10:55 AM55 °FScattered clouds.16 mph82%29.71 "HgN/A
10:25 AM54 °FScattered clouds.14 mph94%29.71 "Hg5 mi
9:55 AM52 °FDrizzle. Broken clouds.14 mph94%29.71 "Hg4 mi
9:25 AM52 °FBroken clouds.14 mph94%29.74 "Hg4 mi
8:55 AM52 °FDrizzle. Broken clouds.13 mph94%29.74 "Hg3 mi
8:25 AM52 °FDrizzle. Partly sunny.12 mph94%29.71 "Hg3 mi
7:55 AM52 °FDrizzle. Partly sunny.13 mph94%29.71 "Hg4 mi
7:25 AM52 °FScattered clouds.10 mph94%29.71 "Hg4 mi
6:55 AM52 °FPassing clouds.10 mph94%29.71 "Hg4 mi
6:25 AM52 °FPassing clouds.8 mph88%29.71 "Hg5 mi
5:55 AM52 °FPassing clouds.8 mph88%29.71 "HgN/A
5:25 AM52 °FPassing clouds.9 mph88%29.71 "HgN/A
4:55 AM52 °FPassing clouds.8 mph82%29.74 "HgN/A
4:25 AM52 °FClear.8 mph82%29.74 "Hg10 mi
3:55 AM52 °FPassing clouds.8 mph82%29.74 "HgN/A
3:25 AM52 °FClear.8 mph82%29.74 "Hg10 mi
2:55 AM52 °FClear.9 mph82%29.74 "Hg10 mi
2:25 AM52 °FClear.10 mph82%29.77 "Hg10 mi
1:55 AM52 °FClear.9 mph82%29.77 "Hg10 mi
1:25 AM52 °FClear.10 mph82%29.77 "Hg10 mi
12:55 AM52 °FClear.10 mph82%29.77 "Hg10 mi
12:25 AM52 °FClear.12 mph82%29.77 "Hg10 mi
11:55 PM
Fri, Apr 24
52 °FClear.14 mph82%29.77 "Hg10 mi
10:55 PM52 °FClear.12 mph82%29.80 "Hg10 mi
10:25 PM54 °FPassing clouds.14 mph77%29.80 "HgN/A
Weather by CustomWeather, © 2015

See weather overviewHow to use our weather pages